Location: ????????
(55.7667°N, 37.4833°E)
Time: 14:08:28
(UTC+00:00)

COSMOS 2428 - Pass Details

Date: 19 May 2025
Orbit: 845 x 853 km, 70.9° (Epoch: 20 June)

Event Time Altitude Azimuth Distance (km) Brightness Sun altitude
Rises 22:56:22 0° 324° (NW) 3,435 6.3 -11.9°
Reaches altitude 10° 22:58:54 10° 319° (NW) 2,495 5.5 -11.8°
Maximum altitude 23:04:23 49° 247° (WSW) 1,101 3.0 -11.5°
Drops below altitude 10° 23:09:50 10° 174° (S) 2,481 4.6 -11.2°
Enters shadow 23:09:53 10° 174° (S) 2,499 4.6 -11.2°
